Wind_Speed
31 31 32 33 34 35 36 37 38 39 40 40 39 39 39 38 38 37 37 37 37 37 38 39 40 41 42 43 43 43 43 42 41 41 41 41 42 41 41 42 43 45 45
33 33 34 35 36 37 38 39 41 41 41 41 40 39 39 38 37 36 36 36 36 37 38 39 40 41 42 43 44 44 45 44 43 43 43 42 42 43 43 43 44 47 46
35 35 37 38 39 40 40 42 43 43 43 42 41 40 39 38 37 37 37 37 37 37 38 39 40 41 42 44 45 46 47 47 45 45 45 45 44 44 43 45 45 47 49
37 37 38 40 41 41 42 44 44 45 44 43 42 41 40 39 38 38 37 37 37 37 38 39 40 42 43 45 46 47 48 49 48 47 47 48 46 45 45 45 45 47 49
38 39 40 41 42 43 44 45 46 46 45 43 43 42 41 40 39 38 37 36 36 37 38 39 40 42 44 46 47 49 50 51 51 49 50 50 49 47 47 46 47 47 48
40 40 41 42 43 44 45 46 47 47 46 44 44 42 41 41 40 38 37 36 36 37 38 39 41 42 44 46 48 50 52 53 54 53 52 52 51 50 49 47 47 48 47
41 41 42 43 44 46 46 47 47 47 46 45 44 42 41 41 40 38 37 36 36 37 38 40 41 42 43 45 47 49 52 54 56 57 56 55 55 53 51 50 48 48 49
42 42 43 44 45 47 47 48 48 47 46 44 43 42 41 40 39 38 38 37 36 36 37 38 40 41 43 44 46 48 51 54 57 59 59 58 58 57 54 52 51 49 49
42 43 44 45 46 48 48 49 48 47 46 44 43 42 41 40 39 38 37 36 35 35 36 37 37 38 40 42 44 46 49 52 56 60 62 62 61 60 58 56 53 51 50
43 44 45 46 47 48 49 49 49 47 45 44 42 42 40 39 38 38 37 36 34 34 34 35 35 35 37 40 41 43 45 50 55 59 63 65 64 63 61 59 55 53 51
44 46 47 48 49 49 49 50 49 47 45 43 42 41 40 38 38 37 35 34 33 32 31 31 31 32 34 36 38 40 43 48 52 57 61 64 66 66 65 62 59 55 53
46 47 48 49 50 50 50 49 48 46 44 42 41 40 39 38 37 35 34 33 31 30 28 27 27 28 29 31 33 36 40 45 49 54 59 63 65 67 67 66 63 59 56
48 49 50 50 50 50 50 49 47 45 43 40 39 39 38 37 36 34 31 30 29 27 26 25 24 24 25 26 28 32 36 40 45 50 55 60 63 66 67 67 66 62 58
50 51 51 51 51 51 50 48 46 44 42 40 38 38 37 36 35 32 30 28 26 24 23 22 21 20 20 21 23 27 31 36 41 46 51 56 61 65 67 67 66 65 61
53 53 53 52 51 49 48 47 45 43 41 38 37 37 36 34 33 30 28 26 24 22 21 19 17 16 16 16 17 19 23 30 36 41 46 51 57 62 65 67 67 66 62
55 55 54 52 50 48 46 45 44 42 40 38 37 36 35 33 31 29 27 25 22 21 19 17 15 14 12 12 11 13 18 23 30 37 42 46 51 57 62 66 67 66 63
57 55 53 51 48 46 45 43 41 40 38 38 37 35 34 33 30 28 27 24 21 20 18 16 14 12 11 9 9 10 13 18 24 31 37 41 45 51 57 62 65 65 62
58 55 52 49 47 44 43 41 40 37 36 35 35 34 33 31 30 28 26 24 21 19 16 14 12 11 9 7 7 9 12 16 21 27 32 36 40 45 51 56 61 64 62
58 54 51 47 45 42 41 39 38 37 35 34 33 32 31 30 29 27 25 23 20 17 16 14 12 10 8 7 7 7 10 14 18 24 28 31 35 40 44 49 55 59 60
56 53 49 45 42 40 39 37 36 35 34 33 32 31 30 29 28 26 24 22 19 17 15 14 12 10 9 8 8 8 9 13 17 20 25 29 31 35 40 45 50 54 56
54 50 46 42 40 38 37 36 35 34 32 31 31 30 29 28 27 25 23 22 18 15 14 13 11 10 9 8 9 10 10 13 16 20 23 26 29 33 37 41 45 50 52
50 46 43 40 37 36 35 34 33 32 30 30 29 29 28 27 25 24 23 21 18 14 13 11 9 9 9 9 10 11 12 13 16 19 22 25 27 30 34 39 42 45 48
46 43 41 38 35 34 33 32 31 30 28 27 27 28 27 26 24 23 22 20 17 14 12 9 8 7 8 9 10 12 13 14 16 19 21 24 26 28 31 36 41 43 45
43 40 38 35 33 32 31 29 29 27 26 25 26 26 26 25 23 22 21 18 16 13 10 9 7 7 7 8 10 11 13 15 17 18 21 23 24 27 30 34 39 41 43
39 36 34 32 30 29 27 27 26 25 23 23 23 24 24 23 22 21 20 18 15 12 10 7 6 5 5 6 8 10 12 14 16 17 20 23 24 26 29 33 38 40 42
35 32 30 29 27 25 24 24 23 22 20 20 21 22 22 22 21 20 19 17 14 11 8 6 5 4 4 5 7 9 11 13 16 17 19 21 24 26 28 32 36 39 41
Wind_Direction
336 335 335 334 334 332 331 329 328 325 322 318 315 310 305 300 295 290 285 280 275 269 265 260 256 252 249 246 244 241 239 237 235 234 233 231 230 228 226 224 223 222 222
335 335 334 334 333 332 331 329 328 326 323 320 316 312 307 302 297 292 286 281 277 272 267 261 257 253 250 247 244 242 239 237 235 233 233 231 229 228 226 223 222 221 219
334 333 333 333 332 331 331 330 328 327 324 322 318 314 310 305 299 293 288 283 278 273 268 263 259 255 251 248 245 242 239 236 234 232 231 231 229 229 227 224 222 221 219
333 333 332 332 331 331 331 330 329 327 325 322 319 316 311 306 301 296 290 285 280 275 270 265 261 257 253 249 245 242 239 236 233 231 230 229 229 228 227 225 222 221 218
332 332 331 331 330 330 330 329 328 327 325 322 320 316 312 308 303 299 294 288 283 278 273 268 263 259 254 250 246 242 239 236 233 230 228 228 228 228 226 225 223 222 219
330 330 330 329 329 329 328 328 327 326 325 322 320 317 313 309 305 301 296 291 286 281 277 272 267 262 257 252 247 243 239 236 233 230 227 226 226 226 226 225 223 223 220
329 329 329 329 328 327 327 327 327 326 324 322 320 317 314 311 308 304 299 294 289 283 279 274 270 265 260 254 249 244 240 236 232 230 227 225 225 224 224 224 223 222 221
329 328 328 328 327 327 327 327 327 326 324 322 320 318 316 312 310 306 302 298 293 287 281 276 271 265 260 256 251 246 241 237 233 229 226 225 223 222 222 222 223 223 221
328 328 328 328 327 327 327 327 326 326 324 323 321 320 317 314 311 308 305 301 296 291 286 281 274 268 262 257 252 247 242 237 233 228 224 223 222 220 220 220 221 222 221
328 328 327 327 327 326 326 326 326 325 324 323 322 321 319 316 313 310 307 303 299 294 289 283 277 270 264 260 254 248 242 236 232 227 224 222 220 219 218 218 219 220 220
326 327 326 326 326 325 325 326 326 326 325 323 322 322 321 319 316 313 309 306 302 298 293 287 280 273 267 261 255 247 241 235 231 227 223 220 219 218 217 216 216 217 217
326 326 325 325 325 325 325 325 326 326 326 324 324 323 323 322 320 317 312 309 306 302 297 291 283 278 271 263 256 248 240 235 230 226 222 219 217 216 216 215 215 214 215
326 326 325 324 324 324 325 325 325 326 326 325 325 325 324 323 322 320 316 313 311 307 302 296 289 284 276 268 258 248 240 234 229 224 220 217 216 215 214 213 213 213 213
326 326 325 324 324 324 325 326 326 326 326 325 325 326 326 324 323 321 318 316 314 312 307 302 295 289 282 270 261 250 240 233 226 221 218 216 214 214 213 212 211 211 211
325 325 325 324 324 324 325 326 326 326 327 326 326 327 327 327 325 323 321 318 316 314 311 308 301 296 290 278 263 248 237 228 221 217 216 215 214 213 212 211 210 211 212
324 325 325 324 325 325 325 325 325 326 327 328 328 328 328 328 326 325 323 320 317 315 312 309 305 298 294 284 269 249 233 223 216 213 212 213 213 213 212 211 211 210 211
323 324 325 325 325 325 326 326 325 326 328 328 328 329 329 329 328 325 325 322 317 316 314 311 306 301 293 279 263 245 227 216 211 208 209 211 212 212 212 211 210 210 210
322 323 323 324 325 326 326 326 326 326 327 328 328 328 329 329 328 327 325 323 317 312 311 310 304 298 292 278 261 241 224 215 209 206 207 209 210 211 211 211 210 210 210
320 321 322 323 324 325 326 326 326 327 327 328 329 329 329 330 329 328 326 324 319 313 308 305 300 293 282 268 251 236 222 214 208 205 204 205 206 207 208 209 210 211 210
317 319 321 323 323 325 325 325 326 327 327 329 330 331 331 331 330 329 327 325 320 314 308 302 296 284 270 257 243 231 218 208 204 202 202 202 203 205 206 207 209 209 209
315 317 319 321 322 323 325 324 325 326 326 328 331 332 332 331 331 330 330 328 323 316 309 302 292 276 264 250 234 226 216 204 201 201 201 203 204 203 203 204 206 206 207
312 314 316 317 319 321 323 324 324 325 326 328 331 332 333 333 332 331 332 331 326 319 314 305 287 271 257 242 231 221 215 206 203 202 202 201 202 201 201 201 202 203 204
309 311 312 313 315 318 320 322 324 324 325 328 331 333 334 334 334 333 332 332 327 319 314 311 298 278 255 237 225 218 213 210 205 201 201 200 200 200 200 201 200 201 202
305 307 309 310 312 314 317 320 323 324 325 328 331 334 336 336 336 337 336 334 330 323 317 310 298 283 263 237 221 215 212 208 204 202 200 200 199 198 198 198 198 198 199
302 303 305 307 310 312 313 317 320 322 323 327 331 335 337 338 339 341 342 340 337 330 323 313 299 281 260 231 215 210 206 204 203 201 200 199 198 197 197 197 198 197 197
297 298 301 303 306 309 311 314 318 320 322 326 331 336 340 341 342 345 349 349 347 342 337 328 320 295 250 224 211 206 204 202 201 198 197 196 195 194 194 195 197 197 196
Height
5789 5784 5779 5774 5769 5764 5758 5753 5747 5742 5736 5730 5725 5720 5715 5711 5707 5704 5702 5700 5700 5699 5699 5701 5702 5705 5707 5710 5714 5718 5722 5727 5732 5736 5740 5745 5749 5754 5759 5764 5769 5775 5781
5784 5779 5773 5768 5762 5757 5751 5745 5739 5733 5726 5721 5715 5709 5704 5700 5696 5693 5690 5688 5688 5687 5687 5688 5689 5691 5694 5697 5701 5705 5710 5715 5721 5726 5729 5734 5740 5744 5749 5754 5760 5765 5772
5778 5773 5767 5761 5755 5749 5743 5736 5730 5723 5717 5710 5705 5699 5694 5689 5685 5681 5679 5676 5675 5674 5674 5675 5676 5678 5680 5683 5687 5692 5696 5702 5708 5714 5718 5723 5729 5734 5739 5744 5750 5756 5762
5772 5766 5760 5754 5747 5741 5735 5728 5721 5714 5707 5701 5694 5688 5683 5678 5673 5669 5666 5664 5662 5661 5660 5661 5662 5663 5666 5669 5673 5677 5682 5688 5694 5701 5707 5712 5718 5723 5729 5735 5740 5746 5752
5765 5759 5753 5746 5740 5733 5726 5719 5712 5705 5697 5691 5684 5678 5672 5666 5661 5657 5654 5651 5649 5647 5646 5646 5647 5648 5650 5653 5657 5662 5667 5673 5680 5687 5694 5700 5706 5713 5719 5725 5730 5736 5742
5758 5752 5746 5739 5732 5725 5718 5711 5703 5695 5688 5680 5674 5667 5661 5655 5650 5645 5642 5639 5636 5634 5632 5631 5631 5632 5634 5637 5640 5645 5651 5657 5665 5673 5680 5687 5694 5701 5708 5714 5720 5727 5733
5751 5745 5738 5731 5724 5717 5709 5702 5694 5686 5678 5670 5663 5656 5650 5643 5638 5633 5629 5626 5623 5620 5618 5616 5615 5616 5617 5620 5623 5628 5634 5640 5648 5657 5665 5673 5681 5689 5696 5704 5710 5717 5724
5744 5738 5731 5724 5716 5708 5700 5692 5684 5676 5668 5660 5652 5645 5638 5632 5626 5621 5616 5612 5608 5605 5603 5601 5600 5599 5600 5602 5606 5611 5616 5623 5631 5640 5650 5658 5665 5674 5683 5692 5699 5706 5712
5737 5730 5723 5715 5708 5700 5691 5683 5675 5666 5658 5650 5642 5635 5628 5621 5614 5609 5604 5599 5595 5591 5588 5586 5584 5584 5584 5585 5589 5593 5599 5605 5611 5621 5631 5640 5650 5660 5670 5679 5687 5695 5703
5729 5722 5715 5707 5699 5691 5683 5674 5665 5656 5648 5640 5632 5624 5617 5610 5604 5598 5592 5587 5583 5579 5575 5572 5570 5569 5569 5569 5572 5576 5581 5587 5593 5602 5612 5623 5634 5645 5655 5666 5676 5684 5693
5721 5714 5706 5698 5690 5682 5673 5665 5656 5647 5639 5630 5623 5615 5607 5600 5593 5587 5581 5576 5571 5567 5562 5559 5556 5555 5554 5554 5556 5560 5564 5569 5575 5584 5594 5605 5617 5630 5641 5653 5663 5673 5683
5712 5705 5697 5689 5681 5673 5664 5655 5647 5638 5630 5621 5613 5605 5598 5590 5584 5577 5571 5565 5560 5556 5552 5548 5545 5543 5541 5541 5542 5545 5548 5553 5560 5568 5579 5590 5603 5615 5627 5639 5650 5661 5671
5704 5696 5688 5680 5671 5663 5654 5646 5637 5629 5621 5613 5605 5597 5589 5582 5575 5568 5562 5556 5551 5547 5542 5539 5535 5533 5531 5530 5530 5532 5535 5540 5547 5555 5565 5577 5588 5599 5611 5624 5636 5647 5659
5695 5687 5679 5670 5662 5653 5645 5637 5629 5621 5613 5605 5597 5590 5582 5574 5567 5561 5555 5549 5544 5539 5535 5531 5527 5524 5522 5520 5520 5521 5524 5529 5535 5544 5553 5562 5573 5585 5598 5611 5623 5636 5647
5686 5678 5669 5661 5652 5644 5635 5627 5620 5613 5605 5597 5590 5582 5575 5568 5561 5554 5548 5543 5538 5533 5529 5525 5521 5518 5516 5514 5513 5513 5515 5519 5526 5534 5543 5552 5562 5574 5586 5598 5611 5624 5636
5676 5668 5660 5651 5643 5635 5627 5619 5611 5604 5597 5589 5582 5575 5568 5561 5554 5548 5542 5537 5532 5528 5524 5520 5517 5514 5512 5510 5509 5509 5510 5513 5519 5526 5534 5543 5553 5563 5575 5587 5600 5613 5625
5666 5658 5650 5642 5634 5626 5619 5612 5605 5597 5589 5582 5575 5568 5562 5555 5549 5543 5537 5532 5527 5523 5519 5516 5513 5511 5509 5507 5507 5507 5508 5510 5515 5521 5529 5537 5546 5555 5566 5578 5590 5603 5615
5656 5648 5641 5633 5625 5618 5611 5604 5597 5591 5584 5577 5569 5562 5556 5550 5543 5538 5532 5527 5523 5519 5516 5513 5510 5508 5507 5506 5505 5505 5506 5509 5512 5518 5524 5532 5540 5549 5560 5571 5582 5594 5606
5646 5639 5631 5624 5617 5610 5603 5597 5590 5584 5577 5571 5564 5557 5551 5545 5539 5533 5528 5523 5518 5515 5512 5509 5507 5506 5505 5504 5504 5504 5505 5507 5511 5515 5521 5528 5536 5545 5554 5564 5575 5586 5598
5636 5629 5622 5615 5609 5602 5596 5590 5584 5578 5571 5565 5558 5552 5546 5540 5534 5529 5524 5519 5514 5511 5508 5506 5504 5503 5502 5502 5503 5503 5504 5506 5510 5514 5519 5525 5533 5541 5549 5558 5569 5579 5591
5625 5619 5613 5607 5601 5595 5589 5583 5578 5572 5566 5560 5554 5547 5542 5536 5530 5525 5520 5515 5511 5507 5505 5502 5501 5500 5500 5500 5501 5502 5504 5506 5509 5513 5518 5524 5530 5537 5545 5553 5563 5573 5584
5615 5609 5604 5599 5593 5588 5582 5577 5572 5566 5561 5555 5549 5543 5537 5532 5526 5521 5516 5512 5507 5504 5501 5499 5497 5497 5497 5498 5499 5500 5502 5505 5508 5512 5517 5522 5528 5534 5541 5549 5558 5568 5579
5604 5600 5595 5591 5586 5581 5576 5571 5566 5561 5556 5551 5545 5540 5534 5528 5523 5518 5513 5509 5504 5501 5499 5497 5495 5494 5494 5495 5496 5498 5501 5504 5506 5510 5515 5520 5525 5531 5538 5546 5554 5564 5574
5594 5590 5586 5582 5578 5574 5570 5565 5561 5556 5551 5547 5542 5536 5531 5526 5521 5515 5510 5506 5502 5499 5496 5495 5493 5492 5492 5493 5494 5496 5498 5502 5505 5508 5513 5517 5523 5528 5535 5542 5551 5560 5569
5583 5580 5577 5574 5571 5567 5563 5559 5555 5551 5547 5543 5538 5534 5529 5524 5519 5513 5508 5504 5500 5496 5494 5493 5491 5491 5490 5491 5492 5494 5497 5500 5503 5506 5510 5515 5520 5526 5532 5539 5548 5556 5565
5573 5571 5569 5566 5563 5560 5557 5554 5550 5547 5543 5540 5536 5531 5527 5522 5517 5512 5507 5503 5499 5496 5493 5492 5491 5490 5489 5490 5491 5492 5495 5497 5501 5504 5508 5513 5518 5524 5530 5537 5545 5553 5562